This demonstration page uses our WeatherBlox Daily Observations layout. Learn more.

Left ArrowRight Arrow

34.16533, -84.80231

Hourly Observations for August 29, 2019

Temp ( °F °C ) Dew Point ( °F °C ) Humidity (%) Winds ( mph kmh ) Pressure ( in mb ) Visibility ( mi km ) Precip ( " mm )
12:53 am 00:53 Clear 65 18.3 62 16.7 90 90 Calm 30.01 1016 10 16 0.00 0.00
1:53 am 01:53 Clear 65 18.3 61 16.1 87 87 Calm 30.00 1016 10 16 0.00 0.00
2:53 am 02:53 Clear 63 17.2 60 15.6 90 90 Calm 29.99 1016 10 16 0.00 0.00
3:53 am 03:53 Clear 63 17.2 60 15.6 90 90 Calm 29.99 1016 10 16 0.00 0.00
4:53 am 04:53 Clear 65 18.3 60 15.6 84 84 N 3 6 30.00 1016 10 16 0.00 0.00
5:53 am 05:53 Clear 63 17.2 59 15 87 87 N 3 6 30.02 1017 10 16 0.00 0.00
6:53 am 06:53 Clear 61 16.1 59 15 93 93 Calm 30.04 1017 10 16 0.00 0.00
7:53 am 07:53 Sunny 62 16.7 60 15.6 93 93 Calm 30.06 1018 10 16 0.00 0.00
8:53 am 08:53 Sunny 68 20 61 16.1 78 78 N 3 6 30.08 1019 10 16 0.00 0.00
9:53 am 09:53 Sunny 72 22.2 61 16.1 68 68 Calm 30.09 1019 10 16 0.00 0.00
10:53 am 10:53 Sunny 76 24.4 60 15.6 58 58 Calm 30.10 1019 10 16 0.00 0.00
11:53 am 11:53 Sunny 81 27.2 59 15 47 47 N 7 11 30.09 1019 10 16 0.00 0.00
12:53 pm 12:53 Sunny 83 28.3 57 13.9 41 41 VRB 5 7 30.07 1018 10 16 0.00 0.00
1:53 pm 13:53 Sunny 84 28.9 57 13.9 40 40 ENE 3 6 30.06 1018 10 16 0.00 0.00
2:53 pm 14:53 Sunny 86 30 57 13.9 37 37 VRB 5 7 30.04 1017 10 16 0.00 0.00
3:53 pm 15:53 Sunny 87 30.6 55 12.8 34 34 Calm 30.03 1017 10 16 0.00 0.00
4:53 pm 16:53 Sunny 88 31.1 55 12.8 33 33 VRB 3 6 30.01 1016 10 16 0.00 0.00
5:53 pm 17:53 Sunny 87 30.6 54 12.2 32 32 NNW 7 11 30.02 1017 10 16 0.00 0.00
6:53 pm 18:53 Sunny 84 28.9 55 12.8 37 37 NNW 6 9 30.02 1017 10 16 0.00 0.00
7:53 pm 19:53 Sunny 79 26.1 56 13.3 45 45 Calm 30.03 1017 10 16 0.00 0.00
8:53 pm 20:53 Clear 70 21.1 58 14.4 66 66 Calm 30.04 1017 10 16 0.00 0.00
9:53 pm 21:53 Clear 66 18.9 59 15 78 78 Calm 30.05 1018 10 16 0.00 0.00
10:53 pm 22:53 Clear 64 17.8 59 15 84 84 Calm 30.07 1018 10 16 0.00 0.00
11:53 pm 23:53 Clear 64 17.8 58 14.4 81 81 Calm 30.07 1018 10 16 0.00 0.00

Powered by AerisWeather